When you browse on this site, cookies collect data to enhance your experience and personalize the content and advertising you see.
Visit our Privacy Policy to learn more. By continuing to use the site, you agree to this use of cookies and data.
  • en Suisse
  • Liste des pays
  • À 7 jours
  • Température de l'eau
  • Carte satellitaire
  • Carte météo
  • Widgets météo
  • user-avatar
    Se connecter

    Météo par heure à Tovsta

    Ce jour, 19 Avril, Vendredi

    Heure Température Précipitation Vent Pression Humidité
    00:00 +8°C° 0.3 mm 1 m/s 749 mmHg 69%
    01:00 +8°C° 0.3 mm 1 m/s 749 mmHg 73%
    02:00 +8°C° 0.3 mm 1 m/s 748 mmHg 77%
    03:00 +7°C° 0.3 mm 1 m/s 748 mmHg 80%
    04:00 +7°C° 0.3 mm 1 m/s 748 mmHg 83%
    05:00 +7°C° 0.3 mm 1 m/s 748 mmHg 85%
    06:00 +8°C° 0.1 mm 1 m/s 748 mmHg 80%
    07:00 +8°C° 0.1 mm 2 m/s 749 mmHg 75%
    08:00 +9°C° 0.1 mm 2 m/s 749 mmHg 69%
    09:00 +9°C° 0.3 mm 3 m/s 749 mmHg 64%
    10:00 +8°C° 0.3 mm 4 m/s 750 mmHg 59%
    11:00 +8°C° 0.3 mm 5 m/s 750 mmHg 53%
    12:00 +9°C° 0 mm 5 m/s 750 mmHg 49%
    13:00 +10°C° 0 mm 5 m/s 751 mmHg 44%
    14:00 +12°C° 0 mm 4 m/s 751 mmHg 40%
    15:00 +11°C° 0 mm 4 m/s 751 mmHg 41%
    16:00 +11°C° 0 mm 4 m/s 751 mmHg 42%
    17:00 +11°C° 0 mm 4 m/s 751 mmHg 44%
    18:00 +8°C° 0 mm 4 m/s 751 mmHg 49%
    19:00 +8°C° 0 mm 3 m/s 751 mmHg 54%
    20:00 +7°C° 0 mm 2 m/s 752 mmHg 59%
    21:00 +6°C° 0 mm 2 m/s 752 mmHg 60%
    22:00 +6°C° 0 mm 2 m/s 752 mmHg 62%
    23:00 +5°C° 0 mm 2 m/s 752 mmHg 63%

    Demain, 20 Avril, Samedi

    Heure Température Précipitation Vent Pression Humidité
    00:00 +5°C° 0 mm 2 m/s 752 mmHg 64%
    01:00 +4°C° 0 mm 2 m/s 752 mmHg 65%
    02:00 +4°C° 0 mm 2 m/s 752 mmHg 66%
    03:00 +4°C° 0 mm 2 m/s 752 mmHg 67%
    04:00 +4°C° 0 mm 2 m/s 752 mmHg 69%
    05:00 +3°C° 0 mm 2 m/s 752 mmHg 70%
    06:00 +5°C° 0 mm 2 m/s 752 mmHg 66%
    07:00 +7°C° 0 mm 2 m/s 752 mmHg 62%
    08:00 +9°C° 0 mm 2 m/s 752 mmHg 58%
    09:00 +10°C° 0 mm 3 m/s 752 mmHg 52%
    10:00 +11°C° 0 mm 3 m/s 752 mmHg 46%
    11:00 +12°C° 0 mm 3 m/s 752 mmHg 40%
    12:00 +13°C° 0 mm 2 m/s 751 mmHg 40%
    13:00 +13°C° 0 mm 2 m/s 751 mmHg 40%
    14:00 +13°C° 0 mm 2 m/s 751 mmHg 41%
    15:00 +13°C° 0 mm 2 m/s 750 mmHg 42%
    16:00 +13°C° 0 mm 1 m/s 750 mmHg 44%
    17:00 +13°C° 0 mm 1 m/s 750 mmHg 45%
    18:00 +12°C° 0 mm 1 m/s 750 mmHg 48%
    19:00 +11°C° 0 mm 1 m/s 750 mmHg 52%
    20:00 +10°C° 0 mm 1 m/s 750 mmHg 55%
    21:00 +9°C° 0 mm 1 m/s 750 mmHg 56%
    22:00 +9°C° 0 mm 1 m/s 750 mmHg 57%
    23:00 +7°C° 0 mm 2 m/s 750 mmHg 59%

    Après-demain, 21 Avril, Dimanche

    Heure Température Précipitation Vent Pression Humidité
    00:00 +7°C° 0 mm 2 m/s 750 mmHg 59%
    01:00 +7°C° 0 mm 2 m/s 750 mmHg 59%
    02:00 +7°C° 0 mm 2 m/s 749 mmHg 60%
    03:00 +6°C° 0 mm 2 m/s 749 mmHg 60%
    04:00 +6°C° 0 mm 2 m/s 749 mmHg 61%
    05:00 +6°C° 0 mm 2 m/s 749 mmHg 61%
    06:00 +7°C° 0 mm 2 m/s 749 mmHg 59%
    07:00 +8°C° 0 mm 2 m/s 749 mmHg 56%
    08:00 +9°C° 0 mm 3 m/s 750 mmHg 54%
    09:00 +10°C° 0 mm 3 m/s 750 mmHg 49%
    10:00 +11°C° 0 mm 3 m/s 750 mmHg 44%
    11:00 +12°C° 0 mm 3 m/s 750 mmHg 39%
    12:00 +12°C° 0 mm 3 m/s 750 mmHg 39%
    13:00 +12°C° 0 mm 3 m/s 750 mmHg 39%
    14:00 +12°C° 0 mm 4 m/s 750 mmHg 40%
    15:00 +12°C° 0 mm 4 m/s 750 mmHg 41%
    16:00 +12°C° 0 mm 4 m/s 750 mmHg 42%
    17:00 +12°C° 0 mm 4 m/s 750 mmHg 43%
    18:00 +11°C° 0 mm 3 m/s 750 mmHg 47%
    19:00 +9°C° 0 mm 3 m/s 750 mmHg 51%
    20:00 +8°C° 0 mm 3 m/s 750 mmHg 55%
    21:00 +8°C° 0 mm 2 m/s 750 mmHg 55%
    22:00 +8°C° 0 mm 2 m/s 751 mmHg 55%
    23:00 +8°C° 0 mm 2 m/s 751 mmHg 56%

    22 Avril, Lundi

    Heure Température Précipitation Vent Pression Humidité
    00:00 +8°C° 0 mm 2 m/s 751 mmHg 56%
    01:00 +7°C° 0 mm 2 m/s 751 mmHg 56%
    02:00 +7°C° 0 mm 2 m/s 751 mmHg 56%
    03:00 +7°C° 0 mm 2 m/s 751 mmHg 57%
    04:00 +6°C° 0 mm 2 m/s 752 mmHg 59%
    05:00 +6°C° 0 mm 2 m/s 752 mmHg 60%
    06:00 +7°C° 0 mm 2 m/s 752 mmHg 57%
    07:00 +9°C° 0 mm 3 m/s 752 mmHg 55%
    08:00 +10°C° 0 mm 3 m/s 753 mmHg 52%
    09:00 +11°C° 0 mm 3 m/s 753 mmHg 48%
    10:00 +12°C° 0 mm 3 m/s 753 mmHg 44%
    11:00 +13°C° 0 mm 3 m/s 753 mmHg 40%
    12:00 +13°C° 0 mm 3 m/s 753 mmHg 40%
    13:00 +13°C° 0 mm 3 m/s 753 mmHg 40%
    14:00 +13°C° 0 mm 3 m/s 753 mmHg 40%
    15:00 +13°C° 0 mm 3 m/s 753 mmHg 41%
    16:00 +13°C° 0 mm 3 m/s 753 mmHg 43%
    17:00 +12°C° 0 mm 3 m/s 753 mmHg 44%
    18:00 +12°C° 0 mm 2 m/s 753 mmHg 48%
    19:00 +10°C° 0 mm 2 m/s 754 mmHg 51%
    20:00 +9°C° 0 mm 2 m/s 754 mmHg 54%
    21:00 +8°C° 0 mm 2 m/s 754 mmHg 56%
    22:00 +8°C° 0 mm 2 m/s 754 mmHg 58%
    23:00 +7°C° 0 mm 2 m/s 754 mmHg 60%

    23 Avril, Mardi

    Heure Température Précipitation Vent Pression Humidité
    00:00 +6°C° 0 mm 2 m/s 754 mmHg 61%
    01:00 +6°C° 0 mm 2 m/s 754 mmHg 62%
    02:00 +6°C° 0 mm 2 m/s 754 mmHg 63%
    03:00 +5°C° 0 mm 2 m/s 754 mmHg 64%
    04:00 +5°C° 0 mm 2 m/s 755 mmHg 66%
    05:00 +5°C° 0 mm 2 m/s 755 mmHg 67%
    06:00 +7°C° 0 mm 2 m/s 755 mmHg 63%
    07:00 +9°C° 0 mm 3 m/s 755 mmHg 58%
    08:00 +11°C° 0 mm 3 m/s 756 mmHg 54%
    09:00 +12°C° 0 mm 3 m/s 756 mmHg 49%
    10:00 +13°C° 0 mm 4 m/s 756 mmHg 43%
    11:00 +14°C° 0 mm 4 m/s 756 mmHg 38%
    12:00 +14°C° 0 mm 4 m/s 756 mmHg 39%
    13:00 +15°C° 0 mm 4 m/s 756 mmHg 39%
    14:00 +15°C° 0 mm 4 m/s 755 mmHg 40%
    15:00 +15°C° 0 mm 4 m/s 755 mmHg 41%
    16:00 +14°C° 0 mm 4 m/s 755 mmHg 43%
    17:00 +14°C° 0 mm 4 m/s 755 mmHg 44%
    18:00 +12°C° 0 mm 4 m/s 755 mmHg 49%
    19:00 +11°C° 0 mm 3 m/s 755 mmHg 54%
    20:00 +9°C° 0 mm 3 m/s 755 mmHg 58%
    21:00 +9°C° 0 mm 3 m/s 755 mmHg 60%
    22:00 +8°C° 0 mm 3 m/s 755 mmHg 61%
    23:00 +8°C° 0 mm 2 m/s 755 mmHg 63%

    24 Avril, Mercredi

    Heure Température Précipitation Vent Pression Humidité
    00:00 +7°C° 0 mm 2 m/s 755 mmHg 64%
    01:00 +7°C° 0 mm 2 m/s 755 mmHg 66%
    02:00 +7°C° 0 mm 2 m/s 755 mmHg 67%
    03:00 +6°C° 0 mm 2 m/s 755 mmHg 68%
    04:00 +6°C° 0 mm 2 m/s 755 mmHg 70%
    05:00 +6°C° 0 mm 2 m/s 755 mmHg 71%
    06:00 +8°C° 0 mm 2 m/s 755 mmHg 66%
    07:00 +10°C° 0 mm 3 m/s 755 mmHg 61%
    08:00 +11°C° 0 mm 3 m/s 756 mmHg 56%
    09:00 +13°C° 0 mm 4 m/s 755 mmHg 53%
    10:00 +14°C° 0 mm 4 m/s 755 mmHg 49%
    11:00 +15°C° 0 mm 5 m/s 755 mmHg 46%
    12:00 +15°C° 0 mm 4 m/s 755 mmHg 45%
    13:00 +17°C° 0 mm 4 m/s 755 mmHg 45%
    14:00 +17°C° 0 mm 4 m/s 754 mmHg 44%
    15:00 +17°C° 0 mm 4 m/s 754 mmHg 45%
    16:00 +16°C° 0 mm 3 m/s 754 mmHg 47%
    17:00 +16°C° 0 mm 3 m/s 754 mmHg 48%
    18:00 +14°C° 0 mm 3 m/s 754 mmHg 52%
    19:00 +13°C° 0 mm 2 m/s 754 mmHg 56%
    20:00 +12°C° 0 mm 2 m/s 754 mmHg 61%
    21:00 +10°C° 0 mm 2 m/s 754 mmHg 62%
    22:00 +10°C° 0 mm 2 m/s 754 mmHg 63%
    23:00 +9°C° 0 mm 2 m/s 754 mmHg 64%
    Voir plus